sat.trackr.live / text

‹ back to catalog

STARLINK-31861

NORAD 59906 · 2024-100X

PAYLOAD ACTIVE UNKNOWN

§ Identity

Operator
Country
US
Launch date
2024-05-28
Launch site
AFETR
Launch vehicle
Mass (kg)
RCS (m²)

Purposes: comms

External: N2YO · Heavens-Above · Gunter

§ Orbital elements

Epoch: 2026-09-21T21:05:12.602976Z

Period
94.27 min
Inclination
42.9981°
Eccentricity
0.0001271
Mean motion
15.27574727 rev/d
Perigee alt
482.2 km
Apogee alt
483.9 km
Semi-major
6,861.2 km
B*
8.8776e-6
RAAN
90.2833°
Arg perigee
271.6705°
Mean anomaly
88.4001°
Rev number
13,123

§ Raw data

STARLINK-318611 59906U 24100X   26264.87861809 -.00000018  00000+0  88776-5 0  99932 59906  42.9981  90.2833 0001271 271.6705  88.4001 15.27574727131236

JSON: /api/v1/satellites/59906 · /tle

For live sub-satellite position, see the globe view (requires WebGL).

§ Visibility from observer

Set your observer location to see the next 7 days of passes ≥ 10°. The values pass through the URL so the page stays shareable.

No JS? Fill the form by hand. The geolocation button needs JavaScript.